Back to catalog

PSLV DEB

LostSSO
NORAD 35344·DEBRIS·🇮🇳 India

Launched Oct 22, 2001 from Satish Dhawan Space Centre

Loading…

Next Passes (next 24 hours)

TLE

StaleSource: Space-Track

Epoch: Jun 12, 2023, 22:12 UTC

1 35344U 01049QC  23163.92509201  .00018323  00000-0  28529-2 0  9991
2 35344  97.8420 195.1018 0048274 219.1815 246.1525 14.72220612   628

Track PSLV DEB in real time with AllMySat

Download on the App Store